TimeCDT,TemperatureF,Dew PointF,Humidity,Sea Level PressureIn,VisibilityMPH,Wind Direction,Wind SpeedMPH,Gust SpeedMPH,PrecipitationIn,Events,Conditions,WindDirDegrees,DateUTC
12:15 AM,36.9,34.7,92,29.79,10.0,WSW,6.9,-,N/A,,Mostly Cloudy,250,2013-10-19 05:15:00
12:35 AM,37.4,34.7,90,29.78,10.0,West,11.5,-,N/A,,Overcast,260,2013-10-19 05:35:00
12:56 AM,37.8,35.6,92,29.77,10.0,West,8.1,-,N/A,,Drizzle,280,2013-10-19 05:56:00
1:15 AM,37.6,35.8,93,29.76,10.0,West,4.6,-,N/A,Rain,Light Rain,280,2013-10-19 06:15:00
1:35 AM,37.4,36.0,95,29.75,10.0,West,3.5,-,N/A,,Drizzle,280,2013-10-19 06:35:00
1:56 AM,37.0,36.0,96,29.74,10.0,West,3.5,-,N/A,Rain,Light Rain,270,2013-10-19 06:56:00
2:15 AM,36.9,36.3,98,29.74,10.0,Calm,Calm,-,N/A,Rain,Rain,0,2013-10-19 07:15:00
2:35 AM,37.0,36.3,97,29.74,10.0,West,4.6,-,N/A,,Drizzle,270,2013-10-19 07:35:00
2:56 AM,37.4,36.7,97,29.73,7.0,Calm,Calm,-,0.01,Rain,Rain,0,2013-10-19 07:56:00
3:15 AM,37.4,36.7,97,29.72,10.0,Calm,Calm,-,N/A,,Light Drizzle,0,2013-10-19 08:15:00
3:35 AM,37.2,36.7,98,29.71,7.0,North,3.5,-,N/A,,Drizzle,360,2013-10-19 08:35:00
3:56 AM,35.8,35.2,98,29.71,10.0,North,4.6,-,N/A,,Overcast,10,2013-10-19 08:56:00
4:15 AM,35.6,34.7,97,29.70,10.0,Calm,Calm,-,N/A,,Overcast,0,2013-10-19 09:15:00
4:35 AM,35.8,34.7,96,29.70,10.0,Calm,Calm,-,N/A,,Light Drizzle,0,2013-10-19 09:35:00
4:55 AM,35.6,34.7,97,29.69,10.0,Calm,Calm,-,N/A,,Overcast,0,2013-10-19 09:55:00
5:15 AM,35.6,34.9,97,29.69,10.0,Calm,Calm,-,N/A,,Overcast,0,2013-10-19 10:15:00
5:36 AM,35.8,35.1,97,29.69,10.0,Calm,Calm,-,N/A,,Overcast,0,2013-10-19 10:36:00
5:55 AM,36.1,35.4,97,29.69,10.0,Calm,Calm,-,N/A,,Overcast,0,2013-10-19 10:55:00
6:15 AM,35.6,34.9,97,29.69,10.0,Calm,Calm,-,N/A,,Overcast,0,2013-10-19 11:15:00
6:36 AM,35.8,35.6,99,29.69,10.0,Calm,Calm,-,N/A,,Overcast,0,2013-10-19 11:36:00
6:55 AM,36.0,35.6,99,29.68,10.0,Calm,Calm,-,N/A,,Overcast,0,2013-10-19 11:55:00
7:15 AM,36.5,35.8,97,29.69,7.0,West,5.8,-,N/A,Rain,Light Rain,270,2013-10-19 12:15:00
7:36 AM,35.2,34.2,96,29.69,4.0,WNW,6.9,-,0.05,Rain,Light Rain,300,2013-10-19 12:36:00
7:55 AM,35.2,34.7,98,29.69,7.0,West,5.8,-,0.05,Rain,Light Rain,280,2013-10-19 12:55:00
8:15 AM,35.6,34.9,97,29.70,10.0,WNW,4.6,-,N/A,,Overcast,290,2013-10-19 13:15:00
9:15 AM,36.5,34.9,94,29.72,10.0,NNW,15.0,20.7,N/A,,Overcast,330,2013-10-19 14:15:00
9:36 AM,36.5,33.3,88,29.72,10.0,NW,13.8,21.9,N/A,,Scattered Clouds,320,2013-10-19 14:36:00
9:55 AM,36.5,32.5,86,29.73,10.0,NNW,15.0,21.9,N/A,,Scattered Clouds,330,2013-10-19 14:55:00
10:16 AM,36.5,32.2,84,29.73,10.0,NNW,16.1,21.9,N/A,,Scattered Clouds,330,2013-10-19 15:16:00
10:35 AM,37.0,32.4,83,29.73,10.0,NW,16.1,20.7,N/A,,Scattered Clouds,320,2013-10-19 15:35:00
10:55 AM,37.4,31.5,79,29.73,10.0,NNW,13.8,-,N/A,,Scattered Clouds,330,2013-10-19 15:55:00
11:16 AM,36.3,30.4,79,29.74,10.0,NNW,13.8,19.6,N/A,,Mostly Cloudy,330,2013-10-19 16:16:00
11:35 AM,37.2,29.8,75,29.75,10.0,NNW,12.7,-,N/A,,Overcast,330,2013-10-19 16:35:00
11:55 AM,36.5,30.6,79,29.75,10.0,NW,15.0,-,N/A,,Overcast,310,2013-10-19 16:55:00
12:16 PM,35.8,30.0,80,29.75,10.0,NW,15.0,21.9,N/A,,Overcast,320,2013-10-19 17:16:00
12:35 PM,36.7,30.9,80,29.76,10.0,NW,15.0,-,N/A,,Overcast,310,2013-10-19 17:35:00
12:55 PM,36.7,30.0,77,29.76,10.0,NW,13.8,-,N/A,,Overcast,310,2013-10-19 17:55:00
1:15 PM,36.5,30.4,78,29.76,10.0,NW,12.7,17.3,N/A,,Overcast,320,2013-10-19 18:15:00
1:35 PM,36.5,30.0,77,29.76,10.0,NW,13.8,-,N/A,,Overcast,320,2013-10-19 18:35:00
1:56 PM,37.6,31.1,77,29.76,10.0,WNW,15.0,-,N/A,,Overcast,300,2013-10-19 18:56:00
2:15 PM,37.0,31.6,81,29.76,10.0,NW,16.1,-,N/A,,Overcast,320,2013-10-19 19:15:00
2:35 PM,38.7,31.6,76,29.76,10.0,NW,13.8,-,N/A,,Overcast,320,2013-10-19 19:35:00
2:56 PM,38.7,31.3,75,29.77,10.0,NW,11.5,17.3,N/A,,Overcast,320,2013-10-19 19:56:00
3:15 PM,38.8,30.9,73,29.77,10.0,NNW,9.2,-,N/A,,Overcast,340,2013-10-19 20:15:00
3:35 PM,39.0,30.7,72,29.77,10.0,NNW,11.5,18.4,N/A,,Overcast,330,2013-10-19 20:35:00
3:56 PM,39.2,30.9,72,29.77,10.0,NW,9.2,-,N/A,,Overcast,320,2013-10-19 20:56:00
4:15 PM,39.2,32.0,75,29.77,10.0,NNW,9.2,-,N/A,,Overcast,340,2013-10-19 21:15:00
4:35 PM,38.3,31.6,77,29.77,10.0,NNW,6.9,-,N/A,,Scattered Clouds,340,2013-10-19 21:35:00
4:56 PM,39.0,32.0,76,29.77,10.0,NNW,8.1,-,N/A,,Mostly Cloudy,340,2013-10-19 21:56:00
5:15 PM,39.7,31.6,73,29.77,10.0,North,9.2,-,N/A,,Overcast,350,2013-10-19 22:15:00
5:36 PM,38.1,32.0,79,29.78,10.0,North,4.6,-,N/A,,Scattered Clouds,360,2013-10-19 22:36:00
5:55 PM,37.9,32.0,79,29.78,10.0,Calm,Calm,-,N/A,,Scattered Clouds,0,2013-10-19 22:55:00
6:15 PM,37.2,31.5,80,29.78,10.0,NNW,3.5,-,N/A,,Mostly Cloudy,330,2013-10-19 23:15:00
6:36 PM,36.1,30.2,79,29.78,10.0,NW,4.6,-,N/A,,Clear,320,2013-10-19 23:36:00
6:55 PM,34.7,30.2,84,29.78,10.0,NNW,3.5,-,N/A,,Clear,330,2013-10-19 23:55:00
7:15 PM,36.0,31.8,85,29.78,10.0,Calm,Calm,-,N/A,,Clear,0,2013-10-20 00:15:00
7:36 PM,36.1,31.6,84,29.78,10.0,Calm,Calm,-,N/A,,Clear,0,2013-10-20 00:36:00
7:55 PM,35.2,32.2,89,29.78,10.0,Calm,Calm,-,N/A,,Clear,0,2013-10-20 00:55:00
8:15 PM,33.8,31.8,92,29.78,10.0,Calm,Calm,-,N/A,,Clear,0,2013-10-20 01:15:00
8:36 PM,32.0,31.1,96,29.78,10.0,Calm,Calm,-,N/A,,Clear,0,2013-10-20 01:36:00
8:55 PM,34.0,32.0,92,29.78,10.0,Calm,Calm,-,N/A,,Clear,0,2013-10-20 01:55:00
9:15 PM,33.8,31.1,90,29.78,10.0,Calm,Calm,-,N/A,,Clear,0,2013-10-20 02:15:00
9:36 PM,31.5,30.2,95,29.77,10.0,Calm,Calm,-,N/A,,Clear,0,2013-10-20 02:36:00
9:55 PM,33.4,31.5,92,29.77,10.0,Calm,Calm,-,N/A,,Clear,0,2013-10-20 02:55:00
10:16 PM,32.5,30.4,92,29.77,10.0,SE,3.5,-,N/A,,Clear,140,2013-10-20 03:16:00
10:36 PM,32.9,30.7,92,29.76,10.0,SSE,4.6,-,N/A,,Clear,150,2013-10-20 03:36:00
10:55 PM,32.2,30.2,92,29.76,10.0,SE,4.6,-,N/A,,Clear,140,2013-10-20 03:55:00
11:16 PM,32.9,30.7,92,29.75,10.0,SE,5.8,-,N/A,,Clear,140,2013-10-20 04:16:00
11:36 PM,32.9,31.1,93,29.74,10.0,SE,4.6,-,N/A,,Scattered Clouds,140,2013-10-20 04:36:00
11:55 PM,33.1,31.1,92,29.74,10.0,SE,5.8,-,N/A,,Scattered Clouds,140,2013-10-20 04:55:00